Location: Arrodets-la-Barthe
(43.0306°N, 0.2829°E)
Time: 19:17:51
(UTC+00:00)

COSMO-SKYMED 1 - Pass Details

Date: 24 October 2021
Orbit: 621 x 623 km, 97.9° (Epoch: 02 December)

Event Time Altitude Azimuth Distance (km) Brightness Sun altitude
Rises 17:50:43 0° 16° (NNE) 2,913 5.8 -9.6°
Reaches altitude 10° 17:52:57 10° 21° (NNE) 2,002 4.9 -10.0°
Maximum altitude 17:57:15 58° 101° (E) 726 2.6 -10.7°
Drops below altitude 10° 18:01:31 10° 181° (S) 1,985 5.2 -11.5°
Sets 18:03:43 0° 185° (S) 2,886 6.1 -11.9°
